Hourly Weather Bolshoe Rybino

Today, 31 July, Saturday

Time Temperature Precipitation Wind Pressure Humidity
00:00 +18°C° 0 mm 3 mps 735 mmHg 82%
01:00 +18°C° 0 mm 3 mps 735 mmHg 84%
02:00 +17°C° 0 mm 3 mps 735 mmHg 86%
03:00 +17°C° 0 mm 3 mps 735 mmHg 85%
04:00 +17°C° 0 mm 3 mps 735 mmHg 84%
05:00 +17°C° 0 mm 2 mps 736 mmHg 83%
06:00 +18°C° 0 mm 3 mps 736 mmHg 78%
07:00 +20°C° 0 mm 3 mps 736 mmHg 73%
08:00 +21°C° 0 mm 3 mps 736 mmHg 68%
09:00 +22°C° 0 mm 4 mps 736 mmHg 64%
10:00 +25°C° 0 mm 5 mps 736 mmHg 59%
11:00 +26°C° 0 mm 5 mps 736 mmHg 55%
12:00 +27°C° 0 mm 6 mps 736 mmHg 51%
13:00 +28°C° 0 mm 6 mps 736 mmHg 48%
14:00 +29°C° 0 mm 6 mps 736 mmHg 44%
15:00 +28°C° 0 mm 6 mps 736 mmHg 47%
16:00 +28°C° 0 mm 5 mps 736 mmHg 49%
17:00 +27°C° 0 mm 4 mps 737 mmHg 52%
18:00 +25°C° 0 mm 4 mps 737 mmHg 57%
19:00 +22°C° 0 mm 3 mps 737 mmHg 62%
20:00 +20°C° 0 mm 2 mps 737 mmHg 67%
21:00 +20°C° 0 mm 2 mps 737 mmHg 68%
22:00 +19°C° 0 mm 2 mps 738 mmHg 68%
23:00 +20°C° 0 mm 1 mps 738 mmHg 69%

Tomorrow, 1 August, Sunday

Time Temperature Precipitation Wind Pressure Humidity
00:00 +19°C° 0 mm 1 mps 738 mmHg 70%
01:00 +18°C° 0 mm 2 mps 738 mmHg 72%
02:00 +17°C° 0 mm 2 mps 738 mmHg 73%
03:00 +18°C° 0 mm 2 mps 738 mmHg 73%
04:00 +18°C° 0 mm 2 mps 738 mmHg 74%
05:00 +18°C° 0 mm 3 mps 738 mmHg 74%
06:00 +20°C° 0 mm 3 mps 738 mmHg 68%
07:00 +23°C° 0 mm 4 mps 738 mmHg 62%
08:00 +26°C° 0 mm 4 mps 739 mmHg 56%
09:00 +27°C° 0 mm 5 mps 739 mmHg 52%
10:00 +29°C° 0 mm 5 mps 739 mmHg 48%
11:00 +32°C° 0 mm 5 mps 738 mmHg 43%
12:00 +32°C° 0 mm 6 mps 738 mmHg 42%
13:00 +32°C° 0 mm 6 mps 738 mmHg 40%
14:00 +33°C° 0 mm 6 mps 738 mmHg 39%
15:00 +32°C° 0 mm 5 mps 738 mmHg 42%
16:00 +32°C° 0 mm 4 mps 737 mmHg 45%
17:00 +31°C° 0 mm 3 mps 737 mmHg 47%
18:00 +29°C° 0 mm 3 mps 737 mmHg 51%
19:00 +27°C° 0 mm 3 mps 737 mmHg 54%
20:00 +25°C° 0 mm 2 mps 737 mmHg 58%
21:00 +24°C° 0 mm 2 mps 737 mmHg 62%
22:00 +23°C° 0 mm 2 mps 737 mmHg 67%
23:00 +21°C° 0 mm 2 mps 737 mmHg 71%

Day after tomorrow, 2 August, Monday

Time Temperature Precipitation Wind Pressure Humidity
00:00 +21°C° 0 mm 2 mps 737 mmHg 76%
01:00 +20°C° 0 mm 2 mps 737 mmHg 81%
02:00 +20°C° 0 mm 1 mps 737 mmHg 86%
03:00 +21°C° 0.1 mm 1 mps 737 mmHg 85%
04:00 +21°C° 0.1 mm 1 mps 737 mmHg 84%
05:00 +21°C° 0.1 mm 1 mps 737 mmHg 82%
06:00 +23°C° 0.1 mm 2 mps 737 mmHg 77%
07:00 +24°C° 0.1 mm 2 mps 736 mmHg 71%
08:00 +26°C° 0.1 mm 2 mps 736 mmHg 65%
09:00 +27°C° 0 mm 3 mps 736 mmHg 60%
10:00 +29°C° 0 mm 4 mps 736 mmHg 55%
11:00 +32°C° 0 mm 5 mps 736 mmHg 49%
12:00 +32°C° 0 mm 5 mps 735 mmHg 49%
13:00 +32°C° 0 mm 6 mps 735 mmHg 49%
14:00 +32°C° 0 mm 6 mps 735 mmHg 49%
15:00 +32°C° 0.1 mm 6 mps 734 mmHg 49%
16:00 +32°C° 0.1 mm 6 mps 734 mmHg 49%
17:00 +30°C° 0.1 mm 6 mps 733 mmHg 50%
18:00 +27°C° 1.1 mm 5 mps 733 mmHg 60%
19:00 +23°C° 1.1 mm 4 mps 734 mmHg 69%
20:00 +20°C° 1.1 mm 3 mps 734 mmHg 79%
21:00 +20°C° 0.3 mm 4 mps 734 mmHg 83%
22:00 +20°C° 0.3 mm 4 mps 734 mmHg 87%
23:00 +20°C° 0.3 mm 4 mps 734 mmHg 91%

3 August, Tuesday

Time Temperature Precipitation Wind Pressure Humidity
00:00 +19°C° 0 mm 4 mps 734 mmHg 91%
01:00 +19°C° 0 mm 5 mps 733 mmHg 91%
02:00 +19°C° 0 mm 5 mps 733 mmHg 91%
03:00 +17°C° 0 mm 5 mps 734 mmHg 92%
04:00 +18°C° 0 mm 4 mps 734 mmHg 93%
05:00 +18°C° 0 mm 4 mps 734 mmHg 94%
06:00 +18°C° 0.4 mm 4 mps 734 mmHg 94%
07:00 +18°C° 0.4 mm 3 mps 735 mmHg 93%
08:00 +18°C° 0.4 mm 3 mps 735 mmHg 92%
09:00 +19°C° 0.3 mm 3 mps 735 mmHg 88%
10:00 +20°C° 0.3 mm 4 mps 735 mmHg 84%
11:00 +21°C° 0.3 mm 4 mps 735 mmHg 80%
12:00 +20°C° 0.7 mm 5 mps 736 mmHg 80%
13:00 +20°C° 0.7 mm 5 mps 736 mmHg 80%
14:00 +20°C° 0.7 mm 6 mps 736 mmHg 80%
15:00 +20°C° 0.1 mm 6 mps 737 mmHg 77%
16:00 +20°C° 0.1 mm 5 mps 737 mmHg 74%
17:00 +20°C° 0.1 mm 5 mps 737 mmHg 71%
18:00 +18°C° 0.1 mm 4 mps 738 mmHg 77%
19:00 +17°C° 0.1 mm 4 mps 738 mmHg 82%
20:00 +14°C° 0.1 mm 3 mps 739 mmHg 88%
21:00 +14°C° 0 mm 3 mps 739 mmHg 90%
22:00 +13°C° 0 mm 3 mps 739 mmHg 92%
23:00 +13°C° 0 mm 3 mps 739 mmHg 94%

4 August, Wednesday

Time Temperature Precipitation Wind Pressure Humidity
00:00 +13°C° 0 mm 3 mps 739 mmHg 94%
01:00 +13°C° 0 mm 3 mps 739 mmHg 93%
02:00 +13°C° 0 mm 3 mps 739 mmHg 93%
03:00 +14°C° 0 mm 2 mps 740 mmHg 92%
04:00 +14°C° 0 mm 2 mps 740 mmHg 91%
05:00 +14°C° 0 mm 2 mps 740 mmHg 90%
06:00 +16°C° 0 mm 2 mps 740 mmHg 82%
07:00 +17°C° 0 mm 3 mps 741 mmHg 75%
08:00 +19°C° 0 mm 3 mps 741 mmHg 67%
09:00 +20°C° 0 mm 3 mps 741 mmHg 62%
10:00 +22°C° 0 mm 3 mps 741 mmHg 57%
11:00 +24°C° 0 mm 3 mps 741 mmHg 52%
12:00 +24°C° 0 mm 3 mps 741 mmHg 52%
13:00 +24°C° 0 mm 3 mps 741 mmHg 52%
14:00 +24°C° 0 mm 2 mps 741 mmHg 51%
15:00 +24°C° 0 mm 2 mps 742 mmHg 54%
16:00 +23°C° 0 mm 2 mps 742 mmHg 56%
17:00 +23°C° 0 mm 1 mps 742 mmHg 58%
18:00 +22°C° 0 mm 1 mps 742 mmHg 59%
19:00 +21°C° 0 mm 1 mps 742 mmHg 59%
20:00 +21°C° 0 mm 1 mps 742 mmHg 60%
21:00 +20°C° 0 mm 1 mps 742 mmHg 60%
22:00 +20°C° 0 mm 1 mps 742 mmHg 61%
23:00 +20°C° 0 mm 1 mps 742 mmHg 61%

5 August, Thursday

Time Temperature Precipitation Wind Pressure Humidity
00:00 +19°C° 0 mm 1 mps 742 mmHg 61%
01:00 +19°C° 0 mm 1 mps 742 mmHg 61%
02:00 +19°C° 0 mm 1 mps 742 mmHg 61%
03:00 +19°C° 0 mm 1 mps 742 mmHg 61%
04:00 +19°C° 0 mm 1 mps 742 mmHg 61%
05:00 +19°C° 0 mm 1 mps 742 mmHg 62%
06:00 +19°C° 0 mm 2 mps 742 mmHg 60%
07:00 +20°C° 0 mm 2 mps 742 mmHg 58%
08:00 +21°C° 0 mm 2 mps 742 mmHg 56%
09:00 +23°C° 0 mm 2 mps 742 mmHg 51%
10:00 +24°C° 0 mm 2 mps 742 mmHg 46%
11:00 +26°C° 0 mm 2 mps 742 mmHg 41%
12:00 +26°C° 0 mm 2 mps 742 mmHg 41%
13:00 +26°C° 0 mm 1 mps 742 mmHg 41%
14:00 +26°C° 0 mm 1 mps 742 mmHg 41%
15:00 +25°C° 0 mm 2 mps 741 mmHg 45%
16:00 +24°C° 0 mm 2 mps 741 mmHg 49%
17:00 +23°C° 0 mm 2 mps 741 mmHg 54%
18:00 +22°C° 0 mm 3 mps 740 mmHg 54%
19:00 +21°C° 0 mm 3 mps 740 mmHg 54%
20:00 +20°C° 0 mm 3 mps 740 mmHg 54%
21:00 +20°C° 0 mm 3 mps 740 mmHg 52%
22:00 +20°C° 0 mm 4 mps 739 mmHg 51%
23:00 +20°C° 0 mm 4 mps 739 mmHg 50%
Show more

We Need Your Consent

Meteoprog and our Service Providers may store and access personal data such as cookies, device identifiers or other similar technologies on your device and process such data to personalise content and ads, as well as provide social media features and to analyse the traffic.

  • Store and/or access information on your device

    Cookies, device identifiers or other information can be stored or accessed on your device for the purposes indicated above.

  • Personalised ads and content, ad and content measurement, audience insights, and products development

    Ads and content can be personalised based on a profile. More data can be added to better personalise ads and content. Ad and content performance can be measured. Insights about the audience who saw the ads and content can be derived. Such data can be used to develop or improve user’s experience, systems and software.

By clicking ‘I Agree’ you will allow the use of indicated cookies, device identifiers, web beacons or other similar technologies. Your settings can be changed in the browser on your device.

For certain purposes, legitimate interests may be relied on, rather than consent. You can read more about this in our Privacy and Cookie Policy.